Location: Pic du Midi - T1M
(42.9366°N, 0.1426°E)
Time: 21:55:58
(UTC+01:00)

X-37B - Pass Details

Date: 26 June 2021
Orbit: 383 x 392 km, 45.0° (Epoch: 01 July)

Event Time Altitude Azimuth Distance (km) Brightness Sun altitude
Rises 23:22:30 0° 278° (W) 2,248 4.9 -19.9°
Reaches altitude 10° 23:24:35 10° 283° (WNW) 1,395 3.9 -20.0°
Maximum altitude 23:27:41 56° 3° (N) 460 1.2 -20.2°
Enters shadow 23:28:10 48° 42° (NE) 505 1.2 -20.3°
